Starlink 35527

operational
NORAD ID: 66092 Int'l Des: 2025-236 Owner: SPXS Country: US Constellation: starlink
NOTLE

About Starlink 35527

Description loading...

Live Position

Loading 3D Globe...

Upcoming Passes

Altitude History

Altitude vs Time

uPlot chart will show altitude changes over time

Two-Line Element Set

1 66092U 25236G 25310.91266429 -.00040708 00000-0 -27584-3 0 9991
2 66092 53.1569 317.9708 0000689 72.3106 287.7989 15.74119899 4098
Epoch: Nov 6, 2025 • Age: 6 hours

Current Status

Altitude 365.4 km
Velocity 7.69 km/s
Sub-Earth Point -51.26°S, 105.03°E
Launch Date Oct 19, 2025
Age 18 days
Type internet

Technical Details

Classification Payload
Mass 575.00 kg
Dry Mass 530.00 kg
Total Mass 575.00 kg
Length 0.30 m
Diameter 4.10 m
Span 29.00 m
Shape Box + pan
Manufacturer SPXS
Bus Type Starlink V2MO
Phase Status In Orbit
Owner/State SPXS/US

Large Constellations

Loading constellations...